OE6PWE-13 Weather Reports


time (UTC)temp
C
wind
direction
speed
KPH
gust
KPH
rain 1hr
cm
rain 24hr
cm
rain mn
cm
humidity
%
barometer
mb
20260906023012 13 0 0.0 0.0 0.00 0.00 0.00 99 1025.0
20260906021511 13 0 0.0 0.0 0.00 0.00 0.00 99 1025.0
20260906020012 13 0 0.0 0.0 0.00 0.00 0.00 99 1024.0
20260906014512 13 0 0.0 0.0 0.00 0.00 0.00 99 1025.0
20260906013012 13 0 0.0 0.0 0.00 0.00 0.00 99 1024.0
20260906011512 13 0 0.0 3.2 0.00 0.00 0.00 99 1024.0
20260906010012 13 0 0.0 0.0 0.00 0.00 0.00 99 1024.0
20260906004512 13 90 0.0 3.2 0.00 0.00 0.00 99 1024.0
20260906003017 13 0 0.0 0.0 0.00 0.00 0.00 99 1024.0
20260906001511 13 0 0.0 0.0 0.00 0.00 0.00 99 1024.0
20260906000012 13 0 0.0 0.0 0.00 0.00 0.00 99 1024.0
20260905234512 13 90 0.0 3.2 0.00 0.00 0.00 99 1024.0
20260905233012 13 0 0.0 0.0 0.00 0.00 0.00 99 1024.0
20260905231512 13 0 0.0 0.0 0.00 0.00 0.00 99 1024.0
20260905230012 13 0 0.0 0.0 0.00 0.00 0.00 99 1024.0
20260905224511 13 0 0.0 0.0 0.00 0.00 0.00 99 1024.0
20260905223012 13 0 0.0 0.0 0.00 0.00 0.00 99 1024.0
20260905221511 14 0 0.0 0.0 0.00 0.00 0.00 99 1024.0
20260905220011 14 0 0.0 0.0 0.00 0.00 0.00 99 1023.0
20260905214511 14 0 0.0 0.0 0.00 0.00 0.00 99 1023.0
20260905213011 14 0 0.0 0.0 0.00 0.00 0.00 99 1023.0
20260905211512 15 0 0.0 1.6 0.00 0.00 0.00 99 1023.0
20260905210012 15 0 0.0 0.0 0.00 0.00 0.00 99 1023.0
20260905204511 15 0 0.0 0.0 0.00 0.00 0.00 99 1023.0
20260905203012 15 0 0.0 0.0 0.00 0.00 0.00 99 1023.0
20260905201512 15 0 0.0 0.0 0.00 0.00 0.00 99 1023.0
20260905200011 16 0 0.0 0.0 0.00 0.00 0.00 99 1023.0
20260905194511 16 0 0.0 0.0 0.00 0.00 0.00 99 1022.0
20260905193011 16 0 0.0 0.0 0.00 0.00 0.00 99 1022.0
20260905191512 16 0 0.0 0.0 0.00 0.00 0.00 99 1022.0
20260905190012 17 0 0.0 0.0 0.00 0.00 0.00 99 1022.0
20260905184512 17 0 0.0 0.0 0.00 0.00 0.00 98 1021.0
20260905183012 17 0 0.0 0.0 0.00 0.00 0.00 98 1021.0
20260905181511 17 0 0.0 0.0 0.00 0.00 0.00 96 1021.0
20260905180012 18 225 0.0 3.2 0.00 0.00 0.00 95 1020.0
20260905174511 19 0 0.0 0.0 0.00 0.00 0.00 93 1020.0
20260905173011 20 0 0.0 0.0 0.00 0.00 0.00 90 1020.0
20260905171512 20 0 0.0 0.0 0.00 0.00 0.00 88 1020.0
20260905170012 21 0 0.0 0.0 0.00 0.00 0.00 86 1020.0
20260905164511 21 203 1.6 4.8 0.00 0.00 0.00 83 1019.0
20260905163012 22 263 3.2 9.7 0.00 0.00 0.00 81 1019.0
20260905161511 22 235 1.6 3.2 0.00 0.00 0.00 78 1019.0
20260905160012 23 228 3.2 6.4 0.00 0.00 0.00 76 1019.0
20260905154512 23 227 1.6 6.4 0.00 0.00 0.00 75 1019.0
20260905153016 22 198 0.0 3.2 0.00 0.00 0.00 74 1019.0
20260905151512 21 180 1.6 6.4 0.00 0.00 0.00 78 1019.0
20260905150011 21 202 4.8 9.7 0.00 0.00 0.00 78 1019.0
20260905144512 21 194 3.2 8.0 0.00 0.00 0.00 80 1019.0
20260905143012 20 243 1.6 4.8 0.00 0.00 0.00 87 1020.0
20260905141512 18 156 1.6 3.2 0.00 0.00 0.00 94 1020.0
20260905140011 17 90 0.0 3.2 0.00 0.00 0.00 97 1020.0
20260905134511 17 191 4.8 8.0 0.00 0.00 0.00 99 1020.0
20260905133012 17 169 1.6 4.8 0.00 0.00 0.00 99 1020.0
20260905131511 17 186 3.2 8.0 0.00 0.00 0.00 99 1020.0
20260905130011 17 127 1.6 3.2 0.00 0.00 0.00 99 1020.0
20260905124512 17 122 0.0 3.2 0.00 0.00 0.00 99 1020.0
20260905123011 17 135 1.6 3.2 0.00 0.00 0.00 99 1020.0
20260905121512 17 122 1.6 3.2 0.00 0.00 0.00 99 1021.0
20260905120012 18 75 0.0 3.2 0.00 0.00 0.00 97 1020.0
20260905114512 21 12 1.6 3.2 0.00 0.00 0.00 83 1020.0
20260905113012 22 270 1.6 6.4 0.00 0.00 0.00 65 1020.0
20260905111512 23 196 3.2 6.4 0.00 0.00 0.00 63 1019.0
20260905110012 23 0 1.6 6.4 0.00 0.00 0.00 61 1019.0
20260905104511 23 0 0.0 3.2 0.00 0.00 0.00 63 1019.0
20260905103011 23 270 0.0 3.2 0.00 0.00 0.00 61 1019.0
20260905101511 22 180 0.0 3.2 0.00 0.00 0.00 62 1019.0
20260905100011 23 260 3.2 8.0 0.00 0.00 0.00 61 1019.0
20260905094512 22 231 1.6 9.7 0.00 0.00 0.00 61 1019.0
20260905093012 21 283 1.6 6.4 0.00 0.00 0.00 68 1019.0
20260905091511 21 213 1.6 6.4 0.00 0.00 0.00 71 1019.0
20260905090012 21 270 1.6 4.8 0.00 0.00 0.00 71 1019.0
20260905084511 21 11 0.0 4.8 0.00 0.00 0.00 73 1019.0
20260905083011 22 90 0.0 3.2 0.00 0.00 0.00 73 1019.0
20260905081511 21 234 1.6 6.4 0.00 0.00 0.00 77 1018.0
20260905080012 22 39 1.6 11.3 0.00 0.00 0.00 80 1017.0
20260905074511 22 333 0.0 3.2 0.00 0.00 0.00 79 1017.0
20260905073011 21 0 1.6 6.4 0.00 0.00 0.00 82 1017.0
20260905071512 20 180 0.0 3.2 0.00 0.00 0.00 91 1016.0
20260905070012 18 0 0.0 0.0 0.00 0.00 0.00 94 1016.0
20260905064511 18 0 0.0 3.2 0.00 0.00 0.00 96 1016.0
20260905063012 17 0 0.0 0.0 0.00 0.00 0.00 99 1016.0
20260905061512 17 0 0.0 3.2 0.00 0.00 0.00 99 1016.0
20260905060012 16 0 0.0 1.6 0.00 0.00 0.00 99 1016.0
20260905054512 16 0 0.0 0.0 0.00 0.00 0.00 99 1016.0
20260905053011 15 0 0.0 0.0 0.00 0.00 0.00 99 1016.0
20260905051512 15 0 0.0 0.0 0.00 0.00 0.00 99 1016.0
20260905050011 15 0 0.0 0.0 0.00 0.00 0.00 99 1015.0
20260905044512 15 0 0.0 0.0 0.00 0.00 0.00 99 1015.0
20260905043012 15 0 0.0 0.0 0.00 0.00 0.00 99 1015.0
20260905041512 15 0 0.0 0.0 0.00 0.00 0.00 99 1015.0
20260905040011 15 0 0.0 0.0 0.00 0.00 0.00 99 1015.0
20260905034512 15 0 0.0 3.2 0.00 0.00 0.00 99 1015.0
20260905033012 15 0 0.0 0.0 0.00 0.00 0.00 99 1015.0
20260905031512 15 0 0.0 0.0 0.00 0.00 0.00 99 1015.0
20260905030011 15 0 0.0 0.0 0.00 0.00 0.00 99 1014.0
20260905024512 15 90 0.0 3.2 0.00 0.00 0.00 99 1014.0